Regional Weather Roundup
Issued by NWS Charleston, SC

Current Version | Previous Version | Text Only | Print | Product List | Glossary Off
Versions: 1 2 3 4 5 6 7 8 9 10 11 12 13 14 15 16 17 18 19 20 21 22 23 24 25 26 27 28 29 30 31 32 33 34 35 36 37 38 39 40 41 42 43 44 45 46 47 48 49 50

000
ASUS42 KCHS 242110
RWRCHS
REGIONAL WEATHER ROUNDUP
NATIONAL WEATHER SERVICE CHARLESTON SC
500 PM EDT FRI OCT 24 2014

NOTE: "FAIR" INDICATES FEW OR NO CLOUDS BELOW 12,000 FEET WITH NO
SIGNIFICANT WEATHER AND/OR OBSTRUCTIONS TO VISIBILITY.

NOT ALL STATIONS ARE QUALITY CONTROLLED BY THE NATIONAL
WEATHER SERVICE. USE DATA WITH CAUTION...ESPECIALLY
DEWPOINT OBSERVATIONS.

SCZ027-030-031-034>040-042>050-242200-
...SOUTH CAROLINA...

CITY           SKY/WX    TMP DP  RH WIND       PRES   REMARKS
N CHARLESTON   MOSUNNY   75  47  36 NW7       29.97F
WATERFRONT PRK   N/A     73 N/A N/A S6          N/A
FORT JOHNSON   NOT AVBL
JOHNS ISLAND   CLEAR     72  52  49 S7        29.98S
PINOPOLIS      NOT AVBL
MONCKS CORNER  FAIR      72  54  53 CALM      29.97F
SUMMERVILLE    FAIR      72  52  49 S3        29.98F
BEAUFORT MCAS  SUNNY     73  44  35 CALM      29.97F
BEAUFORT ARPT  FAIR      72  45  37 CALM      29.97S
HILTON HEAD IS SUNNY     70  48  46 SE3       29.99F
GEORGETOWN     NOT AVBL
WALTERBORO     CLEAR     73  37  27 CALM      29.98F
ORANGEBURG     MOSUNNY   74  44  34 VRB5      29.97F
BARNWELL       FAIR      75  45  33 NW5       29.98S
AIKEN          FAIR      72  48  43 NW6       30.02R
MANNING        FAIR      70  54  56 CALM      29.97F
KINGSTREE      NOT AVBL
COLUMBIA       MOSUNNY   70  44  39 N5        29.99R
SUMTER         PTSUNNY   69  46  42 NW7       29.97S
FLORENCE       MOSUNNY   70  44  39 NW3       29.97F
MYRTLE BEACH   SUNNY     68  48  49 SE10      29.98S
N MYRTLE BEACH SUNNY     67  50  54 S7        29.96F

$$

GAZ063-065-086>088-099>101-113>116-118-119-134-136>141-150-242200-
...GEORGIA...

CITY           SKY/WX    TMP DP  RH WIND       PRES   REMARKS
SAVANNAH ARPT  SUNNY     74  42  31 CALM      29.97F
HUNTER AAF     SUNNY     72  50  45 S6        29.96S
FORT STEWART   SUNNY     73  46  38 CALM      29.96F
STATESBORO     NOT AVBL
SYLVANIA       CLEAR     79  48  34 CALM      29.99S
CLAXTON        FAIR      73  45  35 CALM      29.97F
THOMSON        PTSUNNY   72  55  53 NW3       30.04S
AUGUSTA-BUSH   PTSUNNY   76  41  28 NE5       29.98S
AUGUSTA-DANIEL PTSUNNY   74  42  31 VRB3      29.99S
SWAINSBORO     FAIR      77  45  31 MISG      29.98S
VIDALIA        SUNNY     73  45  35 NE5       29.98F
ALMA           SUNNY     74  41  30 CALM      29.97S
WAYCROSS       SUNNY     77  47  34 SE5       29.97S
JESUP          FAIR      77  46  33 E3        29.97F
BRUNSWICK      SUNNY     73  46  38 NE5       29.98S
SAINT SIMONS   SUNNY     70  50  49 E8        29.98F

$$

SCZ027-028-034-036>038-045-046-048>050-GAZ119-141-242200-
...LAKE AND SUPPLEMENTAL COASTAL OBSERVATIONS...

STATION/POSITION TIME  TEMP    WIND        PRES    WAVE   SWELL
                       AIR SEA DIR/SP/G            HT/PER HT/PER/DIR
                 (UTC) (F)     (DEG/KT/KT) (MB)    (FT/S) (FT/S/D)
UPR LAKE MARION  NOT AVBL
WINYAH BAY       2000   67     120/  4     1015.0S
LAKE MURRAY      2000   70     170/  3/  4 1014.9F
ACE BASIN NERRS  2000   72        CALM     1015.0F
FORT PULASKI     2100   70      70/  3/  4 1015.4S
SAPELO ISLAND    NOT AVBL

$$

ANZ835-935-AMZ111-154-330-350-352-354-374-450-454-472-242200-
...C-MAN AND BUOY OBSERVATIONS...

STATION/POSITION TIME  TEMP    WIND        PRES    WAVE   SWELL
                       AIR SEA DIR/SP/G            HT/PER HT/PER/DIR
                 (UTC) (F)     (DEG/KT/KT) (MB)    (FT/S) (FT/S/D)
FOLLY BEACH CMAN 2000   70     180/  6/  7 1015.7F
BUOY 41004       2100   68 78  340/  6/  8 1014.8F   3/11   3/11
BUOY 41008       2100   69 75   30/  4/  6 1015.3F   2/11   2/110/11
5E ST. MARYS GA  2100      76                N/A     2/11   2/ 80/11
FRYING PAN BUOY  2100   67 73   20/  2/  4 1015.4F   3/10   3/ 70/10
BUOY 41025       2100   64     310/ 12/ 16 1013.3F   3/ 7   3/ 30/ 7
CAPE LOOKOUT NC  2000   66     260/  4/  5 1014.2F
BUOY 41002       2024   73 78  340/  6/ 10 1014.2F   5/ 9   5/ 20/ 9
BUOY 41010       2100   75 82   30/  8/ 16 1013.0F   3/10   2/ 50/10
BUOY 41012       NOT AVBL
ST AUGUSTINE FL  2100   71      10/ 10/ 11 1014.9F
CAPERS NEARSHORE NOT AVBL
FRIPP NEARSHORE  NOT AVBL


$$



USA.gov is the U.S. government's official web portal to all federal, state and local government web resources and services.